#timestamp,LO_Frequency,Hit,StdDev 
1515405615.5,286047003.4,N
1515405635.3,286047004.0,N
1515405655.2,286047004.4,N
1515405675.0,286047002.2,N
1515405675.9,286047011.9,Y
1515405695.8,286046999.7,P
1515405715.6,286047000.0,N
1515405735.4,286047000.2,N
1515405755.3,286047002.8,Y
1515405775.1,286047000.2,P
1515405795.9,286046999.9,P
1515405815.7,286047000.9,P
1515405835.5,286047000.0,N
1515405855.4,286046998.2,Y
1515405875.2,286046999.9,P
1515405895.0,286047000.4,N
1515405895.9,286047000.4,N
1515405915.8,286047002.7,Y
1515405935.6,286047002.0,P
1515405955.5,286047001.8,N
1515405975.3,286047002.9,P
1515405995.1,286047003.9,Y
1515406015.9,286046999.7,P
1515406035.7,286047002.0,N
1515406055.6,286047000.2,N
1515406075.4,286047000.1,N
1515406095.2,286047002.5,N
1515406115.1,286047002.1,N
1515406116.0,286047002.1,N
1515406135.8,286047001.5,N
1515406155.6,286047003.7,Y
1515406175.5,286047001.6,P
1515406195.3,286047002.4,P
1515406215.2,286047000.8,N
1515406235.9,286046998.3,N
1515406255.7,286046999.1,N
1515406275.6,286046997.8,N
1515406295.4,286046996.9,N
1515406315.2,286046999.6,N
1515406335.1,286046997.6,N
1515406336.0,286046997.6,N
1515406355.8,286046997.5,N
1515406375.7,286046995.3,N
1515406395.5,286046997.4,N
1515406415.3,286046997.2,N
1515406435.2,286046997.5,N
1515406455.0,286046998.7,N
1515406455.9,286046998.7,N
1515406475.7,286046998.8,N
1515406495.6,286046998.7,N
1515406515.4,286046999.2,N
1515406535.3,286046997.4,N
1515406555.1,286046994.9,Y
1515406556.0,286046994.9,P
1515406575.8,286046997.6,N
1515406595.7,286046997.0,N
1515406615.5,286046997.7,N
1515406635.4,286046997.5,N
1515406655.2,286046996.5,Y
1515406675.0,286047000.0,P
1515406675.9,286047000.0,N
1515406695.8,286047002.5,N
1515406715.6,286047004.3,N
1515406735.4,286047001.7,N
1515406755.3,286047002.4,N
1515406775.1,286047001.9,N
1515406795.9,286047001.5,N
1515406815.7,286047001.3,N
1515406835.5,286047003.8,N
1515406855.4,286047004.0,N
1515406875.2,286047003.0,N
1515406895.0,286047003.6,N
1515406895.9,286047003.6,N
1515406915.8,286047003.6,N
1515406935.6,286047004.1,N
1515406955.5,286047001.7,N
1515406975.3,286047001.4,N
1515406995.1,286047001.5,N
1515407015.9,286047003.5,N
1515407035.7,286047003.9,N
1515407055.6,286047004.0,N
1515407075.4,286047001.9,N
1515407095.2,286047002.3,N
1515407115.1,286047002.7,N
1515407116.0,286047002.7,N
1515407135.8,286047002.0,N
1515407155.6,286047001.3,N
1515407175.5,286047001.7,N
1515407195.3,286047002.2,N
1515407215.2,286047003.8,Y
1515407235.9,286047000.4,P
1515407255.7,286047002.7,N
1515407275.6,286046999.9,N
1515407295.4,286046999.8,N
1515407315.2,286047003.7,N
1515407335.1,286047003.8,N
1515407336.0,286047003.8,N
1515407355.8,286047003.5,N
1515407375.7,286047003.9,N
1515407395.5,286046999.8,N
1515407415.3,286047000.2,N
1515407435.2,286046999.7,N
1515407455.0,286047001.4,N
1515407455.9,286047001.4,N
1515407475.8,286047001.7,N
1515407495.6,286047001.8,N
1515407515.4,286047004.4,N
1515407535.3,286047003.8,N
1515407555.1,286047004.2,N
1515407575.8,286047004.2,N
1515407595.7,286047001.8,N
1515407615.5,286047002.0,N
1515407635.4,286047001.9,N
1515407655.2,286047003.8,N
1515407675.0,286047002.0,N
1515407675.9,286047002.0,N
1515407695.8,286047004.3,N
1515407715.6,286047001.9,N
1515407735.4,286047003.7,N
1515407755.3,286047004.4,N
1515407775.1,286047004.1,N
1515407795.9,286047003.7,N
1515407815.7,286047004.1,N
1515407835.5,286047001.4,N
1515407855.4,286047004.3,Y
1515407875.2,286047000.6,P
1515407895.0,286047000.6,N
1515407896.0,286047000.6,N
1515407915.8,286047002.4,N
1515407935.6,286047000.0,N
1515407955.5,286047003.1,N
1515407975.3,286047003.5,N
1515407995.1,286047002.9,N
1515408015.9,286047004.3,Y
1515408035.7,286046998.6,P
1515408055.6,286047000.4,N
1515408075.4,286046999.7,N
1515408095.2,286047002.8,N
1515408115.1,286047000.5,N
1515408116.0,286047000.5,N
1515408135.8,286047000.6,N
1515408155.6,286046998.5,N
1515408175.5,286046996.8,N
1515408195.3,286046998.4,N
1515408215.2,286046998.3,N
1515408235.9,286046998.8,N
1515408255.7,286046996.6,N
1515408275.6,286046996.7,N
1515408295.4,286046996.6,N
1515408315.2,286046998.4,N
1515408335.1,286046999.0,N
1515408336.0,286046999.0,N
1515408355.8,286046999.2,N
1515408375.7,286046996.9,N
1515408395.5,286046997.4,N
1515408415.3,286046995.1,N
1515408435.2,286046993.3,Y
1515408455.0,286046996.1,P
1515408455.9,286046996.1,N
1515408475.8,286046997.1,N
1515408495.6,286046996.7,Y
1515408515.4,286046999.7,P
1515408535.3,286047000.5,N
1515408555.1,286047000.4,N
1515408575.9,286046998.8,N
1515408595.7,286046998.6,N
1515408615.5,286047001.1,N
1515408635.4,286046999.9,N
1515408655.2,286047000.3,N
1515408675.0,286047001.2,N
1515408675.9,286047001.2,N
1515408695.8,286046999.3,N
1515408715.6,286046996.7,N
1515408735.5,286046995.3,Y
1515408755.3,286046995.4,P
1515408775.1,286046995.6,N
1515408795.9,286046997.8,N
1515408815.7,286046997.5,N
1515408835.5,286046997.3,N
1515408855.4,286046999.1,N
1515408875.2,286046998.5,N
1515408895.1,286046998.1,N
1515408896.0,286046998.1,N
1515408915.8,286047000.2,N
1515408935.6,286047000.1,N
1515408955.5,286047000.5,N
1515408975.3,286046998.1,N
1515408995.1,286047000.9,N
1515409015.9,286046999.6,N
1515409035.7,286046997.0,N
1515409055.6,286046994.9,Y
1515409075.4,286047001.1,P
1515409095.2,286046999.3,N
1515409115.1,286046999.5,N
1515409116.0,286046999.5,N
1515409135.8,286046998.9,N
1515409155.7,286046996.8,Y
1515409175.5,286046999.0,P
1515409195.3,286046998.1,P
